Clinton-Sherman, OK

2:43 PM CST on February 19, 2018 (GMT -0600)
Clinton-Sherman

Weather History for KCSM - June, 2013

Change the Weather History Date:

Monday, June 17, 2013

  Actual Average Record
Temperature  
Mean Temperature 75 °F -  
Max Temperature 87 °F 86 °F 106 °F (2011)
Min Temperature 64 °F 64 °F 55 °F (1999)
Cooling Degree Days 10    
Growing Degree Days 25 (Base 50)    
Moisture  
Dew Point 64 °F    
Average Humidity 78    
Maximum Humidity 100    
Minimum Humidity 44    
Precipitation  
Precipitation 1.64 in - - ()
Sea Level Pressure  
Sea Level Pressure 29.96 in    
Wind  
Wind Speed 16 mph (NNE)    
Max Wind Speed 37 mph    
Max Gust Speed 47 mph    
Visibility 8 miles    
Events Fog , Rain , Thunderstorm    
Averages and records for this station are not official NWS values.
T = Trace of Precipitation, MM = Missing Value Source: NWS Daily Summary

Daily Weather History Graph

Daily Weather History Graph

Search for Another Location

Airport or City:

Trip Planner

Search our weather history database for the weather conditions in past years. The results will help you decide how hot, cold, wet, or windy it might be!

Date:

Astronomy

Jun. 17, 2013 Rise Set
Actual Time 6:21 AM CDT 8:54 PM CDT
Civil Twilight 5:51 AM CDT 9:23 PM CDT
Nautical Twilight 5:14 AM CDT 10:00 PM CDT
Astronomical Twilight 4:33 AM CDT 10:42 PM CDT
Moon 2:44 PM CDT (6/17) 1:46 AM CDT (6/17)
Length of Visible Light 15h 32m
Length of Day
14h 32m
First Quarter, 60% of the Moon is Illuminated
Jun 17
First Quarter
Jun 23
Full
Jun 29
Last Quarter
Jul 8
New
Jul 15
First Quarter

Hourly Weather History & Observations

Time (CDT) Temp. Heat Index Dew Point Humidity Pressure Visibility Wind Dir Wind Speed Gust Speed Precip Events Conditions
12:53 AM 75.9 °F - 66.0 °F 71% 29.80 in 10.0 mi SE 15.0 mph - N/A   Clear
1:45 AM 71.6 °F - 62.6 °F 73% 30.03 in 10.0 mi North 27.6 mph 44.9 mph N/A Thunderstorm Squalls
1:53 AM 66.9 °F - 64.0 °F 90% 29.95 in 4.0 mi NNW 32.2 mph 47.2 mph 0.06 in Rain , Thunderstorm Thunderstorms and Rain
1:56 AM 64.4 °F - 64.4 °F 100% 30.04 in 1.5 mi NNW 36.8 mph 47.2 mph 0.15 in Rain , Thunderstorm Heavy Thunderstorms and Rain
2:00 AM 64.4 °F - 64.4 °F 100% 30.05 in 0.8 mi NNW 31.1 mph 44.9 mph 0.49 in Rain , Thunderstorm Heavy Thunderstorms and Rain
2:07 AM 66.2 °F - 64.4 °F 94% 30.04 in 0.5 mi NNW 17.3 mph 40.3 mph 0.80 in Fog , Rain , Thunderstorm Heavy Thunderstorms and Rain
2:11 AM 64.4 °F - 64.4 °F 100% 30.05 in 1.0 mi NNW 17.3 mph 33.4 mph 0.87 in Rain , Thunderstorm Heavy Thunderstorms and Rain
2:28 AM 64.4 °F - 64.4 °F 100% 29.99 in 3.0 mi NE 13.8 mph - 1.18 in Rain , Thunderstorm Light Thunderstorms and Rain
2:32 AM 64.4 °F - 64.4 °F 100% 29.99 in 7.0 mi NNE 13.8 mph - 1.18 in Rain , Thunderstorm Light Thunderstorms and Rain
2:53 AM 66.0 °F - 64.9 °F 96% 29.90 in 10.0 mi NE 11.5 mph - 1.20 in Rain , Thunderstorm Light Rain
3:18 AM 66.2 °F - 64.4 °F 94% 29.99 in 10.0 mi ESE 6.9 mph - 0.00 in Rain Light Rain
3:28 AM 66.2 °F - 64.4 °F 94% 30.00 in 10.0 mi North 3.5 mph - 0.00 in Thunderstorm Mostly Cloudy
3:50 AM 66.2 °F - 64.4 °F 94% 30.01 in 1.8 mi SSW 6.9 mph - 0.13 in Rain , Thunderstorm Heavy Thunderstorms and Rain
3:53 AM 66.0 °F - 64.9 °F 96% 29.92 in 2.0 mi South 10.4 mph - 0.15 in Rain , Thunderstorm Heavy Thunderstorms and Rain
4:03 AM 66.2 °F - 66.2 °F 100% 30.00 in 5.0 mi Variable 3.5 mph - 0.02 in Rain , Thunderstorm Rain
4:53 AM 68.0 °F - 66.0 °F 93% 29.94 in 7.0 mi SW 13.8 mph - 0.14 in Rain Rain
5:36 AM 68.0 °F - 64.4 °F 88% 29.84 in 10.0 mi ESE 16.1 mph - 0.09 in Rain Light Rain
5:53 AM 70.0 °F - 63.0 °F 78% 29.76 in 10.0 mi SSE 10.4 mph - 0.09 in   Scattered Clouds
6:15 AM 66.2 °F - 64.4 °F 94% 29.96 in 10.0 mi North 15.0 mph 28.8 mph N/A   Clear
6:53 AM 66.0 °F - 64.0 °F 93% 29.89 in 10.0 mi Calm Calm - N/A   Clear
7:53 AM 68.0 °F - 64.9 °F 90% 29.91 in 10.0 mi West 13.8 mph - N/A   Clear
8:53 AM 70.0 °F - 64.9 °F 84% 29.94 in 10.0 mi West 11.5 mph - N/A   Clear
9:53 AM 73.9 °F - 64.9 °F 73% 29.96 in 10.0 mi NW 10.4 mph - N/A   Clear
10:53 AM 78.1 °F - 64.9 °F 64% 29.96 in 10.0 mi NW 10.4 mph - N/A   Clear
11:53 AM 78.1 °F - 66.0 °F 66% 30.00 in 10.0 mi North 13.8 mph 20.7 mph N/A   Scattered Clouds
12:12 PM 77.0 °F - 64.4 °F 65% 30.06 in 10.0 mi NNE 15.0 mph - N/A   Mostly Cloudy
12:53 PM 78.1 °F - 64.9 °F 64% 29.99 in 10.0 mi NNE 12.7 mph 19.6 mph N/A   Overcast
1:53 PM 79.0 °F - 64.9 °F 62% 29.99 in 10.0 mi NE 10.4 mph - N/A   Mostly Cloudy
2:07 PM 80.6 °F 82.3 °F 64.4 °F 58% 30.05 in 10.0 mi NNE 9.2 mph - N/A   Scattered Clouds
2:53 PM 81.0 °F 82.5 °F 64.0 °F 56% 29.97 in 10.0 mi NNE 9.2 mph - N/A   Clear
3:53 PM 84.0 °F 85.4 °F 64.0 °F 51% 29.95 in 10.0 mi North 6.9 mph - N/A   Clear
4:53 PM 86.0 °F 87.3 °F 64.0 °F 48% 29.92 in 10.0 mi North 4.6 mph - N/A   Clear
5:53 PM 86.0 °F 86.3 °F 62.1 °F 44% 29.90 in 10.0 mi NNE 9.2 mph - N/A   Clear
6:53 PM 86.0 °F 86.3 °F 62.1 °F 44% 29.89 in 10.0 mi ENE 9.2 mph - N/A   Clear
7:53 PM 84.0 °F 84.5 °F 62.1 °F 47% 29.89 in 10.0 mi NE 10.4 mph - N/A   Clear
8:53 PM 80.1 °F 81.5 °F 63.0 °F 56% 29.92 in 10.0 mi East 6.9 mph - N/A   Clear
9:53 PM 78.1 °F - 64.9 °F 64% 29.95 in 10.0 mi East 9.2 mph - N/A   Scattered Clouds
10:53 PM 75.9 °F - 66.0 °F 71% 29.98 in 10.0 mi East 12.7 mph - N/A   Clear
11:53 PM 73.0 °F - 66.0 °F 79% 30.01 in 10.0 mi East 5.8 mph - N/A   Clear